sat.trackr.live / text

‹ back to catalog

STARLINK-11692 [DTC]

NORAD 64381 · 2025-127M

PAYLOAD ACTIVE UNKNOWN

§ Identity

Operator
Country
US
Launch date
2025-06-13
Launch site
AFETR
Launch vehicle
Mass (kg)
RCS (m²)

Purposes: comms

External: N2YO · Heavens-Above · Gunter

§ Orbital elements

Epoch: 2026-05-24T22:15:58.852800Z

Period
91.67 min
Inclination
42.9978°
Eccentricity
0.0001015
Mean motion
15.70867469 rev/d
Perigee alt
355.7 km
Apogee alt
357.1 km
Semi-major
6,734.6 km
B*
1.1912e-3
RAAN
344.9063°
Arg perigee
278.1215°
Mean anomaly
81.9538°
Rev number
5,560

§ Raw data

STARLINK-11692 [DTC]1 64381U 25127M   26144.92776450  .00155468  00000+0  11912-2 0  99902 64381  42.9978 344.9063 0001015 278.1215  81.9538 15.70867469 55608

JSON: /api/v1/satellites/64381 · /tle

For live sub-satellite position, see the globe view (requires WebGL).

§ Visibility from observer

Set your observer location to see the next 7 days of passes ≥ 10°. The values pass through the URL so the page stays shareable.

No JS? Fill the form by hand. The geolocation button needs JavaScript.